Regional Weather Roundup
Issued by NWS

Home | Current Version | Previous Version | Text Only | Print | Product List | Glossary On
Versions: 1 2 3 4 5 6 7 8 9 10 11 12 13 14 15 16 17 18 19 20 21 22 23 24 25 26 27 28 29 30 31 32 33 34 35 36 37 38 39 40 41 42 43 44 45 46 47 48 49 50
000
ASUS43 KIND 270509
RWRIN

WEATHER ROUNDUP FOR INDIANA
NATIONAL WEATHER SERVICE INDIANAPOLIS IN
100 AM EDT FRI MAR 27 2015

NOTE: "FAIR" INDICATES FEW OR NO CLOUDS BELOW 12,000 FEET WITH NO
SIGNIFICANT WEATHER AND/OR OBSTRUCTIONS TO VISIBILITY.

* - STATION DOES NOT REPORT WEATHER SUCH AS PRECIPITATION OR FOG.

+ - STATION NOT QUALITY CONTROLLED BY THE NATIONAL WEATHER SERVICE.
    USE DATA WITH CAUTION...ESPECIALLY DEWPOINT AND RELATIVE
    HUMIDITY OBSERVATIONS.

INZ001>003-010>013-019-020-270600-
NORTHWEST INDIANA

CITY           SKY/WX    TMP DP  RH WIND       PRES   REMARKS
GARY /AIRPORT/ CLOUDY    34  21  58 N15G21    30.07S WCI  25
KNOX *+          N/A     32  16  51 N10       30.03S WCI  24
LA PORTE +     FLURRIES  33  26  74 N12       30.04R WCI  25
MICHIGAN CITY+ CLOUDY    32  21  64 N10       30.05S WCI  24
MONTICELLO +   CLEAR     31  26  83 N6        30.01F WCI  25
RENSSELAER +   PTCLDY    32  30  93 N5        30.04S WCI  27
VALPARAISO     FLURRIES  32  24  72 N8        30.05S WCI  25

$$

LMZ046-743>745-270600-
SOUTHERN LAKE MICHIGAN

STATION/POSITION TIME  TEMP WIND        PRES
                       AIR  DIR/SP/G
                 (UTC) (F)  (DEG/KT/KT) (MB)
BURNS HARBOR     0500   33  350/ 16/ 21 1018.3S
MICHIGAN CITY    0500   32  340/ 18/ 21   N/A

$$

INZ004-005-014>016-021>024-270600-
NORTH CENTRAL INDIANA

CITY           SKY/WX    TMP DP  RH WIND       PRES   REMARKS
GOSHEN         CLOUDY    32  23  69 NW14      30.00S WCI  22
LOGANSPORT +   CLEAR     32  27  80 N6        30.02F WCI  26
PERU/GRISSOM   FAIR      31  24  75 N8        29.99S WCI  24
ROCHESTER +    CLOUDY    34  30  86 N7        30.02S WCI  28
SOUTH BEND     CLOUDY    32  24  72 NW14      30.03S WCI  22
WARSAW +       CLOUDY    30  27  86 NW6       30.01S WCI  24

$$

INZ006>009-017-018-025>027-270600-
NORTHEAST INDIANA

CITY           SKY/WX    TMP DP  RH WIND       PRES   REMARKS
ANGOLA *+      CLOUDY    30  25  80 N8        29.97S WCI  23
AUBURN +       CLEAR     32  25  74 NW5       29.99S WCI  27
FORT WAYNE     PTCLDY    31  24  75 NW6       30.01R WCI  25
HUNTINGTON +   CLEAR     31  21  68 NW5       30.00S WCI  26

$$

INZ028-029-035-036-043>045-051>053-270600-
WEST CENTRAL INDIANA

CITY           SKY/WX    TMP DP  RH WIND       PRES   REMARKS
CRAWFORDSVL +  CLEAR     31  21  68 NE5       30.00S WCI  26
GREENCASTLE +  CLEAR     32  23  69 N3        30.01S
LAFAYETTE      CLEAR     31  25  78 N8        30.02S WCI  23
TERRE HAUTE    CLEAR     34  27  75 CALM      30.02S

$$

INZ030>032-037>040-046>048-054>057-064-065-270600-
CENTRAL INDIANA

CITY           SKY/WX    TMP DP  RH WIND       PRES   REMARKS
CP ATTERBURY + CLEAR     36  30  80 NW7       30.00F
FISHERS *+     CLEAR     32  28  86 CALM      30.00F
FRANKFORT +    CLEAR     33  27  81 N8        30.02S WCI  25
INDIANAPOLIS   PTCLDY    34  26  72 N9        29.98F WCI  27
-EAGLE CREEK   CLEAR     33  26  75 N6        29.99F WCI  28
KOKOMO *+        N/A     32  25  74 N8        30.01S WCI  25
MARION +       CLOUDY    32  25  74 N8        30.01S WCI  25
MT COMFORT *+  CLOUDY    36  23  60 N9        30.00F
SHELBYVILLE    CLOUDY    36  29  75 N6        29.99F
ZIONSVILLE +   CLEAR     33  26  75 N7        30.00F WCI  27

$$

INZ033-034-041-042-049-050-058-059-270600-
EAST CENTRAL INDIANA

CITY           SKY/WX    TMP DP  RH WIND       PRES   REMARKS
MUNCIE         CLOUDY    34  27  75 N6        29.99F WCI  29

$$

INZ060-061-067>069-081>083-085>088-270600-
SOUTHWEST INDIANA

CITY           SKY/WX    TMP DP  RH WIND       PRES   REMARKS
EVANSVILLE     CLEAR     35  32  88 CALM      30.03F
HUNTINGBURG *+ CLEAR     36  28  75 CALM      30.02S
WASHINGTON +   CLEAR     35  31  84 NW5       30.01F WCI  31

$$

INZ062-063-066-070>080-084-089>092-270600-
SOUTH CENTRAL AND SOUTHEAST INDIANA

CITY           SKY/WX    TMP DP  RH WIND       PRES   REMARKS
BEDFORD +      CLEAR     36  30  80 N3        30.01S
BLOOMINGTON    CLEAR     34  28  79 CALM      30.00F
NORTH VERNON + MOCLDY    36  32  87 NW3       29.99F
SEYMOUR +      CLEAR     37  30  75 NW7       30.01S

$$



USA.gov is the U.S. government's official web portal to all federal, state and local government web resources and services.